Home   Weather   Fairfield   Past weeks
Flag for USA

Past Weather in Fairfield, Kentucky, USA — Yesterday and Last 2 Weeks

Now
42 °F

Overcast.


Feels Like: 38 °F
Forecast: 39 / 28 °F
Wind: 7 mph from East

Location: Bowling Green-Warren County Regional Airport

Current Time: Dec 15, 2019 at 2:51:25 pm

Latest Report: Dec 15, 2019 at 1:53 pm


Visibility: 9 mi

Pressure: 30.08 "Hg

Humidity: 71%

Dew Point: 33 °F

Location of FairfieldLocation

Past Weather in Fairfield — Graph

°F

Fairfield Temperature Yesterday

Maximum temperature yesterday: 48 °F (at 11:53 am)
Minimum temperature yesterday: 42 °F (at 11:53 pm)
Average temperature yesterday: 45 °F

High & Low Weather Summary for the Past Weeks

 TemperatureHumidityPressure
High65 °F (Dec 9, 6:53 pm)93% (Nov 30, 5:37 pm)30.58 "Hg (Nov 30, 5:37 pm)
Low23 °F (Dec 11, 3:53 am)27% (Dec 4, 2:53 pm)29.51 "Hg (Nov 30, 11:53 pm)
Average45 °F70%30.02 "Hg
* Reported Nov 30 12:16 pm — Dec 15 12:53 pm, Fairfield. Weather by CustomWeather, © 2019

Note: Actual official high and low records may vary slightly from our data, if they occured in-between our weather recording intervals... More about our weather records

Fairfield Weather History for the Previous 24 Hours

Scroll right to see more
 ConditionsComfort  
Time TempWeatherWind HumidityBarometerVisibility
12:53 pm
Sun, Dec 15
42 °FOvercast.No wind71%30.11 "Hg9 mi
11:53 am40 °FOvercast.No wind73%30.14 "Hg10 mi
10:53 am39 °FOvercast.No wind73%30.16 "Hg10 mi
9:53 am39 °FOvercast.No wind70%30.17 "Hg10 mi
9:32 am38 °FOvercast.3 mph73%30.15 "Hg10 mi
8:53 am36 °FOvercast.3 mph75%30.16 "Hg10 mi
7:53 am35 °FOvercast.3 mph78%30.13 "Hg10 mi
6:53 am35 °FMostly cloudy.5 mph78%30.11 "Hg9 mi
6:20 am35 °FOvercast.5 mph78%30.12 "Hg9 mi
5:53 am36 °FLow clouds.5 mph79%30.11 "Hg7 mi
4:53 am36 °FFog.5 mph85%30.08 "Hg5 mi
3:53 am37 °FLow clouds.3 mph82%30.06 "Hg5 mi
2:53 am38 °FLow clouds.6 mph83%30.05 "Hg4 mi
1:53 am39 °FFog.6 mph86%30.01 "Hg3 mi
12:53 am41 °FLow clouds.6 mph82%29.98 "Hg4 mi
11:53 pm
Sat, Dec 14
42 °FOvercast.6 mph79%29.97 "Hg6 mi
10:53 pm43 °FOvercast.7 mph76%29.94 "Hg10 mi
10:37 pm43 °FOvercast.6 mph76%29.94 "Hg10 mi
9:53 pm43 °FMostly cloudy.6 mph76%29.93 "Hg10 mi
9:24 pm43 °FMostly cloudy.5 mph76%29.93 "Hg10 mi
8:53 pm43 °FOvercast.7 mph76%29.92 "Hg10 mi
7:53 pm44 °FOvercast.6 mph76%29.90 "Hg10 mi
6:53 pm45 °FOvercast.5 mph76%29.88 "Hg10 mi
5:53 pm46 °FOvercast.5 mph71%29.85 "Hg10 mi
4:53 pm46 °FOvercast.6 mph68%29.85 "Hg10 mi
3:53 pm47 °FOvercast.3 mph69%29.82 "Hg10 mi
2:53 pm47 °FBroken clouds.7 mph69%29.80 "Hg10 mi
Weather by CustomWeather, © 2019

See weather overview

Advertising